Home > Weather > Bad Vilbel > Past weeks

Flag for Germany Weather for the Past 2 Weeks in Bad Vilbel, Hesse, Germany

Now
34 °F

Overcast.


Feels Like: 30 °F
Forecast: 36 / 44 °F
Wind: 5 mph from Northeast

Location: Frankfurt-M-Flughafen Airport

Current Time: Feb 13, 2016 at 10:14:23 AM

Latest Report: Feb 13, 2016 at 9:50 AM


Visibility: N/A

Pressure: 29.33 "Hg

Humidity: 87%

Dew point: 30 °F

Location of Bad VilbelLocation

Historic Weather in Bad Vilbel — Graph

°F

Bad Vilbel Temperature Yesterday

Maximum temperature yesterday: 43 °F (at 2:20 PM)
Minimum temperature yesterday: 30 °F (at 6:20 AM)
Average temperature yesterday: 37 °F

High & Low Weather Summary for the Past Weeks

 TemperatureHumidityPressure
High57 °F (Feb 1, 3:50 AM)100% (Jan 31, 7:50 PM)30.39 "Hg (Jan 31, 7:50 PM)
Low30 °F (Feb 12, 6:20 AM)54% (Jan 29, 3:50 PM)29.03 "Hg (Feb 9, 5:50 PM)
Average43 °F80%29.85 "Hg
* Reported Jan 29 8:20 AM — Feb 13 8:50 AM, Bad Vilbel, Weather by CustomWeather, © 2016

Note: Actual official high and low records may vary slightly from our data, if they occured in-between our weather recording intervals... More about our weather records

Advertising

Bad Vilbel Weather History for the Previous 24 Hours

 ConditionsComfort  
Time TempWeatherWind HumidityBarometerVisibility
8:50 AM
Sat, Feb 13
32 °FPartly sunny.6 mph93%29.36 "HgN/A
8:20 AM32 °FSunny.6 mph87%29.36 "Hg10 mi
7:50 AM32 °FSunny.8 mph87%29.36 "Hg10 mi
7:20 AM32 °FClear.6 mph87%29.36 "Hg10 mi
6:50 AM32 °FClear.3 mph87%29.36 "Hg10 mi
6:20 AM30 °FPassing clouds.3 mph86%29.36 "HgN/A
5:50 AM32 °FPassing clouds.6 mph87%29.36 "HgN/A
5:20 AM30 °FPassing clouds.3 mph86%29.36 "HgN/A
4:50 AM30 °FClear.6 mph86%29.36 "Hg10 mi
4:20 AM30 °FPassing clouds.5 mph86%29.36 "HgN/A
3:20 AM32 °FPassing clouds.8 mph80%29.39 "HgN/A
2:50 AM34 °FClear.9 mph81%29.39 "Hg10 mi
2:20 AM36 °FClear.10 mph75%29.39 "Hg10 mi
1:50 AM36 °FClear.12 mph75%29.36 "Hg10 mi
1:20 AM34 °FClear.10 mph81%29.39 "Hg10 mi
12:50 AM34 °FClear.9 mph81%29.36 "Hg10 mi
12:20 AM36 °FClear.8 mph75%29.36 "Hg10 mi
11:50 PM
Fri, Feb 12
36 °FClear.8 mph81%29.36 "Hg10 mi
11:20 PM36 °FClear.9 mph81%29.39 "Hg10 mi
10:20 PM37 °FClear.10 mph75%29.39 "Hg10 mi
9:50 PM37 °FClear.10 mph75%29.39 "Hg10 mi
9:20 PM37 °FClear.13 mph75%29.39 "Hg10 mi
8:50 PM39 °FClear.12 mph70%29.39 "Hg10 mi
8:20 PM39 °FClear.13 mph70%29.39 "Hg10 mi
7:50 PM37 °FPartly cloudy.13 mph75%29.42 "HgN/A
7:20 PM36 °FPartly cloudy.9 mph81%29.42 "HgN/A
6:50 PM39 °FPassing clouds.8 mph70%29.42 "HgN/A
6:20 PM39 °FPassing clouds.8 mph70%29.42 "HgN/A
5:50 PM41 °FPassing clouds.8 mph66%29.42 "HgN/A
5:20 PM43 °FPartly sunny.8 mph61%29.42 "HgN/A
4:50 PM43 °FPartly sunny.8 mph61%29.42 "HgN/A
4:20 PM43 °FBroken clouds.9 mph66%29.45 "HgN/A
3:50 PM43 °FScattered clouds.10 mph61%29.45 "HgN/A
3:20 PM43 °FScattered clouds.13 mph61%29.45 "HgN/A
2:50 PM43 °FScattered clouds.8 mph61%29.47 "HgN/A
2:20 PM43 °FScattered clouds.8 mph66%29.47 "HgN/A
1:50 PM41 °FScattered clouds.5 mph70%29.50 "HgN/A
1:20 PM41 °FBroken clouds.5 mph70%29.53 "HgN/A
12:50 PM41 °FPartly sunny.5 mph70%29.53 "HgN/A
12:20 PM39 °FPartly sunny.3 mph81%29.56 "HgN/A
11:50 AM39 °FPartly sunny.2 mph81%29.56 "HgN/A
11:20 AM37 °FBroken clouds.3 mph87%29.59 "HgN/A
10:50 AM36 °FPartly sunny.3 mph93%29.59 "HgN/A
10:20 AM36 °FPartly sunny.5 mph93%29.62 "HgN/A
Weather by CustomWeather, © 2016

See weather overviewHow to use our weather pages